TimeCST,TemperatureF,Dew PointF,Humidity,Sea Level PressureIn,VisibilityMPH,Wind Direction,Wind SpeedMPH,Gust SpeedMPH,PrecipitationIn,Events,Conditions,WindDirDegrees,DateUTC
12:15 AM,39.2,26.6,61,30.28,10.0,North,4.6,-,N/A,,Clear,360,2012-11-24 06:15:00
12:35 AM,39.2,26.6,61,30.28,10.0,North,-9999.0,-,N/A,,Clear,0,2012-11-24 06:35:00
12:55 AM,37.4,24.8,60,30.28,10.0,North,3.5,-,N/A,,Clear,360,2012-11-24 06:55:00
1:15 AM,37.4,24.8,60,30.28,10.0,North,-9999.0,-,N/A,,Clear,0,2012-11-24 07:15:00
1:35 AM,37.4,24.8,60,30.28,10.0,North,4.6,-,N/A,,Clear,360,2012-11-24 07:35:00
1:55 AM,37.4,23.0,56,30.28,10.0,North,3.5,-,N/A,,Clear,350,2012-11-24 07:55:00
2:15 AM,35.6,23.0,60,30.28,10.0,NNW,8.1,-,N/A,,Clear,340,2012-11-24 08:15:00
2:35 AM,35.6,23.0,60,30.29,10.0,North,5.8,-,N/A,,Clear,360,2012-11-24 08:35:00
2:55 AM,35.6,23.0,60,30.29,10.0,North,5.8,-,N/A,,Clear,360,2012-11-24 08:55:00
3:15 AM,35.6,23.0,60,30.29,10.0,NNW,3.5,-,N/A,,Clear,340,2012-11-24 09:15:00
3:35 AM,33.8,21.2,60,30.29,10.0,North,-9999.0,-,N/A,,Clear,0,2012-11-24 09:35:00
3:55 AM,33.8,21.2,60,30.29,10.0,North,-9999.0,-,N/A,,Clear,0,2012-11-24 09:55:00
4:15 AM,33.8,21.2,60,30.29,10.0,North,-9999.0,-,N/A,,Clear,0,2012-11-24 10:15:00
4:35 AM,33.8,21.2,60,30.30,10.0,North,-9999.0,-,N/A,,Clear,0,2012-11-24 10:35:00
4:55 AM,33.8,21.2,60,30.30,10.0,North,6.9,-,N/A,,Clear,360,2012-11-24 10:55:00
5:15 AM,33.8,21.2,60,30.30,10.0,NNW,6.9,-,N/A,,Clear,330,2012-11-24 11:15:00
5:35 AM,32.0,19.4,60,30.31,9.0,North,3.5,-,N/A,,Clear,360,2012-11-24 11:35:00
5:55 AM,32.0,19.4,60,30.31,8.0,North,5.8,-,N/A,,Clear,360,2012-11-24 11:55:00
6:15 AM,32.0,19.4,60,30.32,9.0,North,5.8,-,N/A,,Clear,360,2012-11-24 12:15:00
6:35 AM,32.0,17.6,55,30.33,9.0,North,5.8,-,N/A,,Clear,350,2012-11-24 12:35:00
6:55 AM,32.0,17.6,55,30.34,8.0,Calm,Calm,-,N/A,,Clear,0,2012-11-24 12:55:00
7:15 AM,33.8,19.4,56,30.34,8.0,North,8.1,-,N/A,,Clear,350,2012-11-24 13:15:00
7:35 AM,35.6,21.2,56,30.35,9.0,North,6.9,-,N/A,,Clear,350,2012-11-24 13:35:00
7:55 AM,35.6,23.0,60,30.35,9.0,North,8.1,-,N/A,,Clear,360,2012-11-24 13:55:00
8:15 AM,37.4,24.8,60,30.36,9.0,East,8.1,32.2,N/A,,Clear,90,2012-11-24 14:15:00
8:35 AM,39.2,26.6,61,30.37,9.0,ENE,10.4,-,N/A,,Clear,70,2012-11-24 14:35:00
8:55 AM,39.2,26.6,61,30.37,9.0,ESE,11.5,16.1,N/A,,Clear,120,2012-11-24 14:55:00
9:15 AM,41.0,28.4,61,30.36,9.0,NNW,13.8,-,N/A,,Clear,330,2012-11-24 15:15:00
9:35 AM,42.8,28.4,57,30.36,8.0,West,9.2,-,N/A,,Clear,280,2012-11-24 15:35:00
9:55 AM,44.6,30.2,57,30.36,9.0,NNE,8.1,-,N/A,,Clear,30,2012-11-24 15:55:00
10:15 AM,44.6,30.2,57,30.36,9.0,North,8.1,-,N/A,,Clear,350,2012-11-24 16:15:00
10:35 AM,46.4,32.0,57,30.35,9.0,NNE,6.9,-,N/A,,Clear,30,2012-11-24 16:35:00
10:55 AM,46.4,32.0,57,30.34,9.0,NNW,8.1,-,N/A,,Clear,340,2012-11-24 16:55:00
11:15 AM,46.4,32.0,57,30.33,8.0,North,8.1,-,N/A,,Clear,360,2012-11-24 17:15:00
11:35 AM,48.2,32.0,54,30.32,9.0,NNW,6.9,-,N/A,,Clear,340,2012-11-24 17:35:00
11:55 AM,48.2,33.8,58,30.30,9.0,North,9.2,-,N/A,,Clear,350,2012-11-24 17:55:00
12:15 PM,50.0,33.8,54,30.29,9.0,North,8.1,-,N/A,,Clear,350,2012-11-24 18:15:00
12:35 PM,51.8,35.6,54,30.28,9.0,North,5.8,-,N/A,,Clear,360,2012-11-24 18:35:00
12:55 PM,51.8,35.6,54,30.27,8.0,Calm,Calm,-,N/A,,Clear,0,2012-11-24 18:55:00
1:15 PM,51.8,35.6,54,30.26,9.0,West,5.8,-,N/A,,Clear,260,2012-11-24 19:15:00
1:35 PM,51.8,35.6,54,30.25,9.0,SE,4.6,-,N/A,,Clear,140,2012-11-24 19:35:00
1:55 PM,53.6,37.4,54,30.25,8.0,East,5.8,-,N/A,,Clear,80,2012-11-24 19:55:00
2:15 PM,53.6,37.4,54,30.25,8.0,NNE,6.9,-,N/A,,Clear,20,2012-11-24 20:15:00
2:35 PM,51.8,35.6,54,30.24,9.0,NE,6.9,-,N/A,,Clear,40,2012-11-24 20:35:00
2:55 PM,51.8,35.6,54,30.24,8.0,North,6.9,-,N/A,,Clear,360,2012-11-24 20:55:00
3:15 PM,51.8,35.6,54,30.24,8.0,NE,4.6,-,N/A,,Clear,50,2012-11-24 21:15:00
3:35 PM,51.8,35.6,54,30.24,8.0,North,5.8,-,N/A,,Clear,360,2012-11-24 21:35:00
3:55 PM,50.0,33.8,54,30.24,9.0,North,3.5,-,N/A,,Clear,350,2012-11-24 21:55:00
4:15 PM,48.2,33.8,58,30.23,9.0,Calm,Calm,-,N/A,,Clear,0,2012-11-24 22:15:00
4:35 PM,46.4,32.0,57,30.24,9.0,Calm,Calm,-,N/A,,Clear,0,2012-11-24 22:35:00
4:55 PM,42.8,28.4,57,30.23,9.0,Calm,Calm,-,N/A,,Clear,0,2012-11-24 22:55:00
5:15 PM,37.4,24.8,60,30.23,10.0,North,-9999.0,-,N/A,,Clear,0,2012-11-24 23:15:00
5:35 PM,35.6,23.0,60,30.23,10.0,Calm,Calm,-,N/A,,Clear,0,2012-11-24 23:35:00
5:55 PM,33.8,21.2,60,30.23,10.0,Calm,Calm,-,N/A,,Clear,0,2012-11-24 23:55:00
6:15 PM,32.0,19.4,60,30.23,10.0,Calm,Calm,-,N/A,,Clear,0,2012-11-25 00:15:00
6:35 PM,32.0,19.4,60,30.23,8.0,North,-9999.0,-,N/A,,Clear,0,2012-11-25 00:35:00
6:55 PM,32.0,17.6,55,30.23,8.0,Calm,Calm,-,N/A,,Clear,0,2012-11-25 00:55:00
7:15 PM,32.0,17.6,55,30.23,7.0,North,-9999.0,-,N/A,,Clear,0,2012-11-25 01:15:00
7:35 PM,30.2,17.6,60,30.23,5.0,North,-9999.0,-,N/A,,Haze,0,2012-11-25 01:35:00
7:55 PM,30.2,17.6,60,30.22,9.0,North,-9999.0,-,N/A,,Clear,0,2012-11-25 01:55:00
8:15 PM,30.2,15.8,55,30.22,9.0,Calm,Calm,-,N/A,,Clear,0,2012-11-25 02:15:00
8:35 PM,30.2,14.0,51,30.22,8.0,North,-9999.0,-,N/A,,Clear,0,2012-11-25 02:35:00
8:55 PM,28.4,14.0,55,30.21,8.0,Calm,Calm,-,N/A,,Clear,0,2012-11-25 02:55:00
9:15 PM,28.4,14.0,55,30.21,8.0,Calm,Calm,-,N/A,,Clear,0,2012-11-25 03:15:00
9:35 PM,28.4,14.0,55,30.22,8.0,Calm,Calm,-,N/A,,Clear,0,2012-11-25 03:35:00
9:55 PM,28.4,14.0,55,30.21,8.0,North,-9999.0,-,N/A,,Clear,0,2012-11-25 03:55:00
10:15 PM,28.4,14.0,55,30.21,8.0,Calm,Calm,-,N/A,,Clear,0,2012-11-25 04:15:00
10:35 PM,28.4,14.0,55,30.21,9.0,Calm,Calm,-,N/A,,Clear,0,2012-11-25 04:35:00
10:55 PM,28.4,14.0,55,30.22,9.0,Calm,Calm,-,N/A,,Clear,0,2012-11-25 04:55:00
11:15 PM,28.4,14.0,55,30.21,9.0,North,-9999.0,-,N/A,,Clear,0,2012-11-25 05:15:00
11:35 PM,26.6,12.2,55,30.21,8.0,Calm,Calm,-,N/A,,Clear,0,2012-11-25 05:35:00
11:55 PM,26.6,14.0,59,30.20,9.0,Calm,Calm,-,N/A,,Clear,0,2012-11-25 05:55:00